Zurück zum Katalog

LEASAT 2

AktivMilitärGEO
NORAD 15236·PAYLOAD·🇺🇸 United States

Gestartet Aug 30, 1984 von Cape Canaveral Space Force Station

Loading…

TLE

AktuellSource: Space-Track

Epoche: Sep 14, 2026, 12:42 UTC

1 15236U 84093C   26257.52972205 -.00000153  00000-0  00000-0 0  9995
2 15236  10.6232 311.4915 0032122 285.0155  78.3868  0.97456303128933

Verfolge LEASAT 2 in Echtzeit mit AllMySat

Download on the App Store